Regional Weather Roundup
Issued by NWS

Home | Current Version | Previous Version | Text Only | Print | Product List | Glossary On
Versions: 1 2 3 4 5 6 7 8 9 10 11 12 13 14 15 16 17 18 19 20 21 22 23 24 25 26 27 28 29 30 31 32 33 34 35 36 37 38 39 40 41 42 43 44 45 46 47 48 49 50
000
ASUS43 KBIS 252301
RWRND

NORTH DAKOTA REGIONAL WEATHER ROUNDUP
NATIONAL WEATHER SERVICE BISMARCK ND
600 PM CDT MON MAY 25 2015

NOTE: "FAIR" INDICATES FEW OR NO CLOUDS BELOW 12,000 FEET WITH NO
SIGNIFICANT WEATHER AND/OR OBSTRUCTIONS TO VISIBILITY.


NDZ001>003-009>011-017-260000-
NORTHWEST NORTH DAKOTA

CITY           SKY/WX    TMP DP  RH WIND       PRES   REMARKS
WILLISTON      CLOUDY    71  45  39 W15       29.85R
MINOT          PTSUNNY   74  44  34 N12       29.81R
MINOT AFB      SUNNY     76  45  32 SW6       29.79F
$$

NDZ018>021-031>035-040>046-260000-
SOUTHWEST NORTH DAKOTA

CITY           SKY/WX    TMP DP  RH WIND       PRES   REMARKS
BISMARCK       PTSUNNY   68  54  60 W12       29.84S
DICKINSON      CLOUDY    66  47  50 SE7       29.88S
GARRISON         N/A     77  43  29 NE5       29.82S
HETTINGER ARPT CLOUDY    62  49  62 SE10      29.90F
$$

NDZ004>008-012>016-024-026-027-054-260000-
NORTHEAST NORTH DAKOTA

CITY           SKY/WX    TMP DP  RH WIND       PRES   REMARKS
GRAND FORKS    PTSUNNY   74  50  42 S12       29.77R
GRND FRKS AFB  PTSUNNY   74  50  42 S12       29.77R
DEVILS LAKE    MOSUNNY   77  37  24 E7        29.77S
$$

NDZ022-023-025-028>030-036>039-047>053-260000-
SOUTHEAST NORTH DAKOTA

CITY           SKY/WX    TMP DP  RH WIND       PRES   REMARKS
FARGO          CLOUDY    65  54  67 NE8       29.80R
JAMESTOWN      MOSUNNY   71  54  54 SW10      29.79S
$$




USA.gov is the U.S. government's official web portal to all federal, state and local government web resources and services.